Location: Ald�n
(42.2833°N, 8.8167°W)
Time: 21:26:56
(UTC+00:00)

Daily predictions for brighter satellites

Satellite Brightness Start Highest point End
(mag) Time Altitude Azimuth Time Altitude Azimuth Time Altitude Azimuth
Cosmos 1464 Rocket 4.3 18:47:37 10° SSE 18:53:20 43° E 18:59:08 10° NNE
CZ-2C R/B 3.6 18:49:00 10° SE 18:54:00 42° ENE 18:59:16 10° N
USA 238 DEB 4.2 18:47:01 10° NNW 18:54:01 50° NE 19:01:16 10° ESE
USA 238 4.2 18:47:07 10° NNW 18:54:07 50° NE 19:01:22 10° ESE
Cosmos 1782 Rocket 3.8 18:49:48 10° S 18:54:12 79° W 18:58:41 10° N
Okean-O 2.6 18:51:14 10° SSE 18:55:37 69° ENE 19:00:02 10° N
Cosmos 1674 4.5 18:55:08 10° NE 18:57:16 14° ENE 18:59:22 10° ESE
GP-B 3.8 18:54:13 10° N 18:58:37 62° W 19:02:59 10° SSW
PSLV R/B 4.5 18:58:08 10° N 19:02:18 66° WNW 19:06:28 10° SSW
MOS 1 Rocket 3.9 19:01:07 10° NE 19:04:51 28° E 19:08:32 10° SSE
ARGOS 3.9 19:04:56 10° SE 19:09:41 33° ENE 19:14:27 10° N
In-Cosmos 22 4.3 19:06:32 10° N 19:11:45 52° ENE 19:17:00 10° SSE
Cosmos 1048 Rocket 4.3 19:07:18 10° N 19:12:29 48° ENE 19:17:39 10° SE
Cosmos 2151 Rocket 3.9 19:10:52 10° SSE 19:15:07 45° E 19:19:25 10° NNE
CZ-2C R/B 3.8 19:10:55 10° NE 19:15:08 21° E 19:19:19 10° SE
Lacrosse 5 rocket 4.0 19:14:28 10° NNW 19:16:04 12° N 19:17:42 10° NNE
HJ-1C 3.8 19:13:24 10° SE 19:16:28 38° ENE 19:19:35 10° N
NOSS 3-2 (A) 4.1 19:11:03 10° NNW 19:18:39 73° NE 19:27:10 10° SE
Cosmos 1975 Rocket 3.8 19:14:26 10° NNW 19:18:40 55° W 19:22:52 10° S
Cosmos 1891 Rocket 4.4 19:13:24 10° S 19:19:28 75° E 19:25:31 10° N
Shenzhou-11 Module 2.2 19:17:55 10° SW 19:19:47 27° SSE 19:20:33 21° ESE
DMSP B5D1-3 4.5 19:14:47 10° NNE 19:19:52 66° ESE 19:24:56 10° S
BREEZE-M DEB (TANK) 2.8 19:18:14 10° NW 19:21:04 66° NNE 19:27:36 13° ESE
Cosmos 494 Rocket 4.5 19:20:15 10° N 19:25:14 40° ENE 19:29:53 11° SE
ATLAS 5 CENTAUR R/B 3.3 19:22:32 10° NW 19:25:51 58° SW 19:36:24 10° SSE
Cosmos 1805 4.2 19:23:06 10° SSE 19:26:21 26° E 19:29:37 10° NNE
COSMO-SKYMED 1 4.4 19:24:06 10° N 19:28:02 35° WNW 19:31:58 10° SW
Milstar 3 Cent rocket 4.0 19:22:37 10° SW 19:28:47 22° S 19:32:39 12° SE
SL-08 RB Rocket 4.4 19:27:52 12° SE 19:31:31 33° ENE 19:35:34 10° N
Ariane Rocket 3.9 19:28:06 14° ESE 19:31:35 30° ENE 19:35:57 10° N
H-2A R/B 1.9 19:27:52 10° SSE 19:32:48 68° ENE 19:37:54 10° N
USA 116 4.1 19:34:15 10° N 19:37:59 70° WNW 19:42:11 10° SSW
KORONAS-FOTON 4.3 19:35:20 10° N 19:39:04 40° ENE 19:41:31 18° SE
Nadezhda 4 Rocket 3.9 19:33:03 10° N 19:39:09 64° E 19:45:13 10° SSE
Cosmos 1707 3.6 19:38:02 10° NNW 19:41:46 50° W 19:45:27 10° S
Cosmos 1626 3.8 19:40:00 10° NNE 19:42:02 18° ENE 19:42:02 18° ENE
USA 186 2.6 19:42:34 29° E 19:42:58 31° ENE 19:45:54 10° N
CZ-2C R/B 3.4 19:41:02 10° WSW 19:43:14 15° SSW 19:45:20 10° SSE
Cosmos 1844 Rocket 2.8 19:38:30 10° SSW 19:44:03 76° WNW 19:49:41 10° NNE
ISS -1.4 19:42:45 10° WNW 19:45:16 19° NNW 19:47:46 10° NE
COSMOS 2406 4.3 19:41:11 10° N 19:45:56 27° NE 19:47:55 22° E
Cosmos 2278 Rocket 3.6 19:44:12 10° SSE 19:51:32 15° ENE 19:52:50 10° NE
Cosmos 1844 3.8 19:46:01 10° SSW 19:51:44 82° WNW 19:57:24 10° NNE
Cosmos 2034 Rocket 4.0 19:47:59 10° S 19:54:21 88° W 20:00:44 10° N
Exosat Rocket 3.4 19:50:47 10° SSW 19:56:21 82° ESE 20:01:21 10° NNE
NOSS 3-2 (C) 4.1 19:49:18 10° NW 19:56:57 80° NE 20:03:38 18° SE
Meteor 2-5 Rocket 4.0 19:51:44 10° N 19:57:16 49° ENE 20:00:46 22° SE
Okean 1 Rocket 3.0 19:54:23 10° S 19:58:47 61° E 20:03:13 10° NNE
NOSS 3-4 (A) 3.3 19:53:15 10° SSW 19:59:02 66° ESE 20:05:11 10° NE
NOSS 3-4 (C) 3.3 19:53:21 10° SSW 19:59:08 65° ESE 20:05:17 10° NE
Meteor 1-24 Rocket 4.2 19:54:18 10° N 19:59:33 39° ENE 20:01:37 29° ESE
Resurs 01 Rocket 3.5 20:03:26 16° NE 20:03:26 16° NE 20:05:21 10° NNE
SL-14 R/B 4.4 19:59:15 10° NNE 20:01:55 27° NE 20:01:55 27° NE
Meteor 2-13 Rocket 4.4 19:57:03 10° N 20:03:12 65° E 20:08:35 13° SSE
Cosmos 1766 3.1 20:04:08 10° S 20:08:00 67° E 20:11:56 10° NNE
Cosmos 1833 Rocket 3.5 20:06:09 10° N 20:11:07 30° NE 20:11:54 29° ENE
Abrixas rocket 2.7 20:11:13 10° WNW 20:13:27 47° NNW 20:13:27 47° NNW
CENTAUR R/B 3.2 20:07:34 10° NW 20:15:49 87° WSW 20:22:00 23° SSE
CREW DRAGON DEMO-1 DEB 3.4 20:13:40 10° NW 20:16:08 53° NNW 20:16:08 53° NNW
BREEZE-M DEB (TANK) 4.0 20:18:07 10° W 20:19:10 20° WSW 20:19:10 20° WSW
SPOT 3 Rocket 4.1 20:20:50 38° ENE 20:20:52 38° ENE 20:25:37 10° N
ATLAS 2AS CENTAUR R/B 3.0 20:13:36 10° SSW 20:21:31 83° ESE 20:29:28 10° NE
Cosmos 1634 Rocket 3.8 20:15:54 10° S 20:22:00 69° E 20:28:11 10° NNE
SJ-6B 2.6 20:24:09 77° NE 20:24:09 77° NE 20:27:47 10° N
Resurs 1-3 4.3 20:26:17 38° NE 20:26:17 38° NE 20:29:39 10° N
ATLAS 3B R/B 3.2 20:21:28 10° NNW 20:28:02 45° NE 20:29:50 38° E
Cosmos 1892 Rocket 4.5 20:25:44 10° N 20:28:35 34° NNE 20:28:35 34° NNE
Cosmos 1674 4.0 20:29:22 10° NNW 20:32:58 39° W 20:35:09 20° SSW
Cosmos 2026 Rocket 4.0 20:37:26 10° N 20:43:51 87° W 20:46:52 34° S
Cosmos 1092 Rocket 4.3 20:37:57 10° NNW 20:44:03 65° W 20:49:00 16° S
Cosmos 1340 Rocket 4.4 20:50:43 29° N 20:50:43 29° N 20:52:48 10° N
Cosmos 1733 4.5 20:48:36 29° WSW 20:49:54 40° WNW 20:53:32 10° N
Cosmos 1428 Rocket 4.5 20:46:05 10° N 20:52:20 79° W 20:54:38 41° S
CZ-2C R/B 3.4 20:50:16 10° N 20:55:41 54° WNW 21:01:08 10° SSW
Lacrosse 5 rocket 3.7 20:53:42 10° NNW 20:56:20 18° NNE 20:56:20 18° NNE
Cosmos 2279 Rocket 3.8 20:57:30 65° SSE 20:58:27 82° E 21:04:44 10° N
OBJECT-B 3.7 21:02:00 15° NNW 21:02:00 15° NNW 21:02:38 10° NNW
Cosmos 2098 Rocket 4.4 20:56:39 10° N 21:01:46 45° NE 21:01:46 45° NE
Cosmos 2082 Rocket 3.0 20:59:02 10° NNW 21:03:08 38° NNE 21:03:08 38° NNE
Ariane Rocket 4.4 21:08:19 24° SW 21:10:26 34° W 21:15:03 10° NNW
USA 234 4.4 21:25:41 29° SSW 21:25:41 29° SSW 21:28:40 10° SW
ISS -0.3 21:20:34 10° NW 21:20:44 11° NW 21:20:44 11° NW
COSMOS 2406 3.9 21:25:03 10° NW 21:30:00 48° W 21:30:00 48° W
Cosmos 2278 Rocket 3.0 21:26:41 10° SW 21:33:01 48° NNW 21:37:43 10° NNE
Lacrosse 4 Rocket 4.0 21:28:11 10° NNW 21:29:10 17° NNW 21:29:10 17° NNW
Resurs 01 Rocket 3.8 21:41:01 23° NW 21:41:01 23° NW 21:42:51 10° NNW
Cosmos 1833 Rocket 4.1 21:49:52 10° NW 21:53:37 34° WNW 21:53:37 34° WNW
ATLAS 3B R/B 3.8 22:12:16 10° NW 22:17:06 37° W 22:17:06 37° W
